N7LK Weather Reports


time (UTC)temp
C
wind
direction
speed
KPH
gust
KPH
rain 1hr
cm
rain 24hr
cm
rain mn
cm
humidity
%
barometer
mb
20260508012335 34 302 1.6 16.1 0.00 0.00 0.00 10 1006.4
20260508011342 34 295 6.4 17.7 0.00 0.00 0.00 10 1006.4
20260508010329 35 224 0.0 14.5 0.00 0.00 0.00 10 1006.4
20260508005336 35 254 3.2 19.3 0.00 0.00 0.00 9 1006.3
20260508004327 35 227 6.4 17.7 0.00 0.00 0.00 9 1006.2
20260508003336 35 186 4.8 19.3 0.00 0.00 0.00 9 1006.3
20260508002341 35 241 4.8 14.5 0.00 0.00 0.00 9 1006.3
20260508001327 35 248 3.2 17.7 0.00 0.00 0.00 9 1006.2
20260508000338 36 281 9.7 17.7 0.00 0.00 0.00 9 1006.3
20260507235344 36 188 0.0 9.7 0.00 0.00 0.00 8 1006.3
20260507234331 35 289 6.4 17.7 0.00 0.00 0.00 8 1006.4
20260507233338 35 293 8.0 16.1 0.00 0.00 0.00 8 1006.3
20260507232329 36 262 6.4 14.5 0.00 0.00 0.00 8 1006.4
20260507231337 36 290 6.4 12.9 0.00 0.00 0.00 8 1006.5
20260507230326 36 136 0.0 8.0 0.00 0.00 0.00 8 1006.5
20260507225332 36 131 4.8 11.3 0.00 0.00 0.00 8 1006.6
20260507224403 36 211 1.6 8.0 0.00 0.00 0.00 7 1006.7
20260507223349 36 206 0.0 4.8 0.00 0.00 0.00 8 1006.8
20260507222355 35 279 3.2 11.3 0.00 0.00 0.00 8 1006.9
20260507221340 35 300 4.8 12.9 0.00 0.00 0.00 8 1007.0
20260507220348 35 105 1.6 12.9 0.00 0.00 0.00 8 1007.1
20260507215337 35 175 9.7 17.7 0.00 0.00 0.00 8 1007.3
20260507214325 35 229 1.6 9.7 0.00 0.00 0.00 9 1007.5
20260507213332 35 84 1.6 11.3 0.00 0.00 0.00 8 1007.7
20260507212340 35 83 3.2 16.1 0.00 0.00 0.00 9 1007.8
20260507211329 36 317 1.6 11.3 0.00 0.00 0.00 9 1008.0
20260507210356 35 155 1.6 9.7 0.00 0.00 0.00 9 1008.1
20260507205341 35 155 0.0 14.5 0.00 0.00 0.00 9 1008.3
20260507204349 35 225 1.6 11.3 0.00 0.00 0.00 9 1008.4
20260507203340 35 191 11.3 14.5 0.00 0.00 0.00 9 1008.6
20260507202328 35 83 0.0 6.4 0.00 0.00 0.00 9 1008.7
20260507201335 34 335 0.0 0.0 0.00 0.00 0.00 9 1008.8
20260507200342 34 342 0.0 1.6 0.00 0.00 0.00 9 1009.0
20260507195333 33 64 0.0 8.0 0.00 0.00 0.00 10 1009.2
20260507194340 34 9 0.0 6.4 0.00 0.00 0.00 9 1009.5
20260507193329 34 290 0.0 6.4 0.00 0.00 0.00 11 1009.7
20260507192326 33 155 0.0 0.0 0.00 0.00 0.00 10 1009.9
20260507191334 33 192 0.0 4.8 0.00 0.00 0.00 11 1010.1
20260507190340 33 206 3.2 9.7 0.00 0.00 0.00 11 1010.2
20260507185327 32 208 3.2 12.9 0.00 0.00 0.00 12 1010.3
20260507184338 32 116 0.0 0.0 0.00 0.00 0.00 12 1010.5
20260507183344 32 86 0.0 0.0 0.00 0.00 0.00 11 1010.6
20260507182331 32 191 0.0 0.0 0.00 0.00 0.00 11 1010.7
20260507181339 31 154 0.0 9.7 0.00 0.00 0.00 12 1010.9
20260507180351 31 107 0.0 11.3 0.00 0.00 0.00 12 1010.9
20260507175337 31 144 4.8 11.3 0.00 0.00 0.00 13 1011.0
20260507174344 31 263 0.0 8.0 0.00 0.00 0.00 14 1011.1
20260507173330 30 142 0.0 11.3 0.00 0.00 0.00 14 1011.1
20260507172342 30 5 3.2 9.7 0.00 0.00 0.00 13 1011.2
20260507171328 30 232 3.2 11.3 0.00 0.00 0.00 15 1011.4
20260507170334 30 302 1.6 8.0 0.00 0.00 0.00 14 1011.4
20260507165341 29 277 3.2 12.9 0.00 0.00 0.00 15 1011.6
20260507164333 28 240 0.0 4.8 0.00 0.00 0.00 17 1011.6
20260507163400 28 209 0.0 4.8 0.00 0.00 0.00 19 1011.6
20260507162344 28 243 0.0 8.0 0.00 0.00 0.00 20 1011.8
20260507161331 28 211 4.8 8.0 0.00 0.00 0.00 20 1011.8
20260507160338 27 134 3.2 6.4 0.00 0.00 0.00 20 1011.9
20260507155330 27 203 3.2 4.8 0.00 0.00 0.00 22 1012.0
20260507154355 26 198 0.0 6.4 0.00 0.00 0.00 23 1012.0
20260507153341 26 140 0.0 0.0 0.00 0.00 0.00 23 1012.0
20260507152327 26 236 0.0 0.0 0.00 0.00 0.00 24 1012.0
20260507151337 25 138 0.0 0.0 0.00 0.00 0.00 24 1012.1
20260507150343 25 146 0.0 0.0 0.00 0.00 0.00 25 1012.0
20260507145329 24 184 0.0 0.0 0.00 0.00 0.00 25 1012.1
20260507144335 23 179 0.0 0.0 0.00 0.00 0.00 27 1012.1
20260507143327 22 152 0.0 0.0 0.00 0.00 0.00 30 1012.1
20260507142333 21 153 0.0 0.0 0.00 0.00 0.00 31 1012.1
20260507141341 20 173 0.0 0.0 0.00 0.00 0.00 37 1012.0
20260507140329 20 163 0.0 0.0 0.00 0.00 0.00 38 1012.0
20260507135401 19 161 0.0 0.0 0.00 0.00 0.00 41 1011.8
20260507134327 18 161 0.0 0.0 0.00 0.00 0.00 43 1011.8
20260507133335 17 162 0.0 0.0 0.00 0.00 0.00 44 1011.8
20260507132342 16 168 0.0 0.0 0.00 0.00 0.00 48 1011.8
20260507131335 16 167 0.0 0.0 0.00 0.00 0.00 47 1011.7
20260507130342 16 165 0.0 0.0 0.00 0.00 0.00 46 1011.6
20260507125329 16 165 0.0 0.0 0.00 0.00 0.00 44 1011.5
20260507124338 16 165 0.0 0.0 0.00 0.00 0.00 44 1011.6
20260507123330 16 165 0.0 0.0 0.00 0.00 0.00 42 1011.4
20260507122338 16 179 0.0 0.0 0.00 0.00 0.00 46 1011.4
20260507121326 16 292 0.0 0.0 0.00 0.00 0.00 45 1011.3
20260507120334 16 292 0.0 0.0 0.00 0.00 0.00 45 1011.2
20260507115345 17 292 0.0 0.0 0.00 0.00 0.00 42 1011.3
20260507114332 17 292 0.0 0.0 0.00 0.00 0.00 44 1011.4
20260507113340 17 292 0.0 0.0 0.00 0.00 0.00 44 1011.3
20260507112328 17 292 0.0 0.0 0.00 0.00 0.00 43 1011.3
20260507111339 17 292 0.0 0.0 0.00 0.00 0.00 42 1011.4
20260507110327 17 292 0.0 0.0 0.00 0.00 0.00 40 1011.4
20260507105335 17 292 0.0 0.0 0.00 0.00 0.00 41 1011.5
20260507104325 17 292 0.0 0.0 0.00 0.00 0.00 40 1011.6
20260507103334 18 292 0.0 0.0 0.00 0.00 0.00 39 1011.7
20260507102342 18 292 0.0 0.0 0.00 0.00 0.00 39 1011.9
20260507101330 18 292 0.0 0.0 0.00 0.00 0.00 37 1011.9
20260507100342 18 292 0.0 0.0 0.00 0.00 0.00 36 1011.9
20260507095351 18 292 0.0 0.0 0.00 0.00 0.00 37 1012.0
20260507094339 19 292 0.0 0.0 0.00 0.00 0.00 35 1012.1
20260507093326 19 292 0.0 0.0 0.00 0.00 0.00 34 1012.1
20260507092337 19 292 0.0 0.0 0.00 0.00 0.00 35 1012.0
20260507091342 20 292 0.0 0.0 0.00 0.00 0.00 33 1012.1
20260507090331 20 292 0.0 0.0 0.00 0.00 0.00 31 1012.1
20260507085339 20 290 0.0 0.0 0.00 0.00 0.00 31 1012.1
20260507084330 20 290 0.0 0.0 0.00 0.00 0.00 31 1012.1
20260507083338 20 340 0.0 0.0 0.00 0.00 0.00 31 1012.1
20260507082327 20 316 0.0 0.0 0.00 0.00 0.00 32 1012.1
20260507081355 20 309 0.0 0.0 0.00 0.00 0.00 31 1012.2
20260507080325 20 309 0.0 0.0 0.00 0.00 0.00 32 1012.2
20260507075333 20 308 0.0 0.0 0.00 0.00 0.00 31 1012.2
20260507074342 20 304 0.0 0.0 0.00 0.00 0.00 32 1012.2
20260507073330 20 306 0.0 0.0 0.00 0.00 0.00 33 1012.3
20260507072343 20 306 0.0 0.0 0.00 0.00 0.00 33 1012.2
20260507071331 20 306 0.0 0.0 0.00 0.00 0.00 33 1012.2
20260507070339 21 306 0.0 0.0 0.00 0.00 0.00 32 1012.2
20260507065347 21 306 0.0 0.0 0.00 0.00 0.00 32 1012.2
20260507064339 21 306 0.0 0.0 0.00 0.00 0.00 31 1012.2
20260507063328 21 306 0.0 0.0 0.00 0.00 0.00 31 1012.2
20260507062335 22 306 0.0 0.0 0.00 0.00 0.00 30 1012.3
20260507061344 22 306 0.0 0.0 0.00 0.00 0.00 29 1012.3
20260507060336 22 306 0.0 0.0 0.00 0.00 0.00 29 1012.2
20260507055343 22 306 0.0 0.0 0.00 0.00 0.00 29 1012.2
20260507054331 23 306 0.0 0.0 0.00 0.00 0.00 28 1012.2
20260507053400 23 306 0.0 0.0 0.00 0.00 0.00 28 1012.2
20260507052331 23 300 0.0 0.0 0.00 0.00 0.00 27 1012.1
20260507051337 23 288 0.0 0.0 0.00 0.00 0.00 26 1012.1
20260507050345 24 288 0.0 0.0 0.00 0.00 0.00 26 1012.1
20260507045353 24 288 0.0 0.0 0.00 0.00 0.00 25 1012.0
20260507044339 24 288 0.0 0.0 0.00 0.00 0.00 24 1012.0
20260507043331 24 288 0.0 0.0 0.00 0.00 0.00 24 1012.0
20260507042338 24 267 0.0 0.0 0.00 0.00 0.00 24 1011.9
20260507041347 25 265 0.0 0.0 0.00 0.00 0.00 23 1011.7
20260507040334 25 274 0.0 0.0 0.00 0.00 0.00 24 1011.6
20260507035344 25 276 0.0 0.0 0.00 0.00 0.00 24 1011.4
20260507034333 25 276 0.0 0.0 0.00 0.00 0.00 22 1011.3
20260507033342 26 286 0.0 0.0 0.00 0.00 0.00 23 1011.2
20260507032329 26 286 0.0 0.0 0.00 0.00 0.00 21 1011.1
20260507031339 26 290 0.0 3.2 0.00 0.00 0.00 21 1010.9
20260507030346 26 280 0.0 6.4 0.00 0.00 0.00 21 1010.8
20260507025332 26 269 0.0 6.4 0.00 0.00 0.00 21 1010.7
20260507024340 26 250 1.6 6.4 0.00 0.00 0.00 21 1010.7
20260507023331 27 227 0.0 4.8 0.00 0.00 0.00 21 1010.5
20260507022340 27 245 0.0 8.0 0.00 0.00 0.00 21 1010.4
20260507021327 27 259 0.0 6.4 0.00 0.00 0.00 20 1010.3
20260507020336 27 268 3.2 9.7 0.00 0.00 0.00 20 1010.3
20260507015329 28 224 1.6 11.3 0.00 0.00 0.00 20 1010.3
20260507014336 28 237 3.2 9.7 0.00 0.00 0.00 20 1010.2
20260507013344 28 248 0.0 16.1 0.00 0.00 0.00 20 1010.1